N-2 R/B(2)

基本信息
目录编号:
12787
目录名称:
N-2 R/B(2)
国际标识:
1981-012C
轨道中心:
EARTH
物体状态:
在轨
发射日期:
1981-02-11 UTC
国别:
日本 (JP)
轨道信息
数据来源: 国际轨道数据
星历时间: 2026-07-13T20:07:18+0800
半长轴: 14817.419km
偏心率: 0.5562205
轨道倾角: 28.010°
近地点辐角: 205.113°
升交点赤经: 313.162°
平近点角: 112.231°
近地点: 197.529km
远地点: 16681.035km
周期: 299.170分钟
每日圈数: 4.813311
详细信息
发射场:
TNSTA
轨道高度:
LEO
数据来源:
AOE Integration Group
参考系:
TEME
时间系统:
UTC
历元类型:
SGP4
2D轨道图
3D轨道图
轨道高度分析图
轨道倾角分析图
轨道综合分析图
查看轨道综合分析图